カタログに戻る

IRIDIUM 33 DEB

運用中PO
NORAD 34091·DEBRIS·🇺🇸 United States

打ち上げ Sep 14, 1997 から Baikonur Cosmodrome

Loading…

次のパス (今後24時間)

TLE

最新Source: Space-Track

元期: Sep 14, 2026, 13:11 UTC

1 34091U 97051DA  26257.54994264  .00029988  00000-0  23975-2 0  9998
2 34091  86.3437 298.6082 0025835  38.3711 321.9352 14.99821554919799

AllMySatでIRIDIUM 33 DEBをリアルタイム追跡

Download on the App Store